sat.trackr.live / text

‹ back to catalog

STARLINK-33575

NORAD 62760 · 2025-015C

PAYLOAD ACTIVE UNKNOWN

§ Identity

Operator
Country
US
Launch date
2025-01-21
Launch site
AFWTR
Launch vehicle
Mass (kg)
RCS (m²)

Purposes: comms

External: N2YO · Heavens-Above · Gunter

§ Orbital elements

Epoch: 2026-09-21T22:20:08.403648Z

Period
93.85 min
Inclination
53.1569°
Eccentricity
0.0001306
Mean motion
15.34397382 rev/d
Perigee alt
461.8 km
Apogee alt
463.6 km
Semi-major
6,840.8 km
B*
2.5455e-4
RAAN
126.8594°
Arg perigee
114.1423°
Mean anomaly
245.9717°
Rev number
9,382

§ Raw data

STARLINK-335751 62760U 25015C   26264.93065282  .00008233  00000+0  25455-3 0  99982 62760  53.1569 126.8594 0001306 114.1423 245.9717 15.34397382 93825

JSON: /api/v1/satellites/62760 · /tle

For live sub-satellite position, see the globe view (requires WebGL).

§ Visibility from observer

Set your observer location to see the next 7 days of passes ≥ 10°. The values pass through the URL so the page stays shareable.

No JS? Fill the form by hand. The geolocation button needs JavaScript.